| time (UTC) | temp F | wind direction | speed knots | gust knots | rain 1hr in | rain 24hr in | rain mn in | humidity % | barometer mb |
| 20260507060500 | 60 | 360 | 9.6 | 13.9 | 0.01 | 0.04 | 0.02 | 92 | 1008.8 |
| 20260507060003 | 60 | 338 | 9.6 | 13.0 | 0.01 | 0.04 | 0.02 | 91 | 1008.9 |
| 20260507055504 | 61 | 355 | 10.4 | 13.0 | 0.02 | 0.04 | 0.02 | 90 | 1008.9 |
| 20260507054959 | 61 | 325 | 10.4 | 15.6 | 0.01 | 0.03 | 0.01 | 90 | 1008.9 |
| 20260507054505 | 61 | 345 | 11.3 | 15.6 | 0.01 | 0.03 | 0.01 | 90 | 1008.9 |
| 20260507054000 | 62 | 334 | 12.2 | 15.6 | 0.01 | 0.03 | 0.01 | 90 | 1009.0 |
| 20260507053459 | 62 | 336 | 11.3 | 15.6 | 0.01 | 0.03 | 0.01 | 91 | 1009.1 |
| 20260507053005 | 62 | 336 | 8.7 | 14.8 | 0.01 | 0.03 | 0.01 | 91 | 1009.2 |
| 20260507052503 | 63 | 331 | 11.3 | 14.8 | 0.01 | 0.03 | 0.01 | 91 | 1009.1 |
| 20260507052000 | 64 | 335 | 11.3 | 13.9 | 0.01 | 0.03 | 0.01 | 92 | 1009.1 |
| 20260507051500 | 64 | 340 | 9.6 | 12.2 | 0.01 | 0.03 | 0.01 | 92 | 1009.0 |
| 20260507051000 | 64 | 334 | 6.1 | 9.6 | 0.01 | 0.03 | 0.01 | 92 | 1009.1 |
| 20260507050505 | 64 | 315 | 6.1 | 13.0 | 0.01 | 0.03 | 0.01 | 91 | 1009.1 |
| 20260507050002 | 64 | 315 | 5.2 | 13.0 | 0.00 | 0.02 | 0.00 | 91 | 1009.2 |
| 20260507045505 | 64 | 296 | 1.7 | 3.5 | 0.00 | 0.02 | 0.00 | 92 | 1009.1 |
| 20260507045004 | 64 | 241 | 2.6 | 3.5 | 0.00 | 0.02 | 0.00 | 92 | 1009.0 |
| 20260507044505 | 64 | 223 | 2.6 | 3.5 | 0.00 | 0.02 | 0.00 | 92 | 1009.1 |
| 20260507043505 | 64 | 171 | 1.7 | 3.5 | 0.00 | 0.02 | 0.00 | 92 | 1009.1 |
| 20260507042005 | 64 | 161 | 1.7 | 4.3 | 0.00 | 0.02 | 0.00 | 92 | 1008.9 |
| 20260507041001 | 64 | 135 | 1.7 | 4.3 | 0.00 | 0.02 | 0.00 | 93 | 1008.7 |
| 20260507040504 | 63 | 148 | 1.7 | 2.6 | 0.00 | 0.02 | 0.00 | 93 | 1009.0 |
| 20260507035505 | 63 | 160 | 1.7 | 2.6 | 0.00 | 0.02 | 0.02 | 93 | 1009.0 |
| 20260507035005 | 63 | 160 | 1.7 | 1.7 | 0.00 | 0.02 | 0.02 | 93 | 1009.0 |
| 20260507034505 | 63 | 160 | 1.7 | 1.7 | 0.00 | 0.02 | 0.02 | 93 | 1009.1 |
| 20260507034004 | 63 | 160 | 1.7 | 1.7 | 0.00 | 0.02 | 0.02 | 93 | 1009.1 |
| 20260507033504 | 63 | 160 | 0.0 | 0.0 | 0.00 | 0.02 | 0.02 | 92 | 1008.9 |
| 20260507033005 | 63 | 160 | 0.0 | 0.0 | 0.00 | 0.02 | 0.02 | 92 | 1008.8 |
| 20260507032505 | 63 | 160 | 0.0 | 0.0 | 0.00 | 0.02 | 0.02 | 92 | 1008.6 |
| 20260507032005 | 63 | 160 | 0.0 | 0.9 | 0.00 | 0.02 | 0.02 | 92 | 1008.6 |
| 20260507031505 | 63 | 160 | 0.0 | 1.7 | 0.00 | 0.02 | 0.02 | 91 | 1008.6 |
| 20260507031005 | 63 | 115 | 0.9 | 2.6 | 0.00 | 0.02 | 0.02 | 91 | 1008.4 |
| 20260507030505 | 63 | 114 | 0.9 | 2.6 | 0.00 | 0.02 | 0.02 | 92 | 1008.2 |
| 20260507030005 | 63 | 131 | 0.9 | 2.6 | 0.00 | 0.02 | 0.02 | 92 | 1008.0 |
| 20260507025504 | 63 | 152 | 0.0 | 0.0 | 0.00 | 0.02 | 0.02 | 92 | 1008.3 |
| 20260507024505 | 63 | 153 | 0.0 | 0.0 | 0.00 | 0.02 | 0.02 | 92 | 1008.6 |
| 20260507023504 | 63 | 153 | 0.9 | 2.6 | 0.00 | 0.02 | 0.02 | 93 | 1008.8 |
| 20260507023005 | 63 | 133 | 1.7 | 2.6 | 0.00 | 0.02 | 0.02 | 93 | 1008.9 |
| 20260507022505 | 62 | 177 | 1.7 | 2.6 | 0.00 | 0.02 | 0.02 | 93 | 1009.0 |
| 20260507022004 | 62 | 177 | 1.7 | 2.6 | 0.00 | 0.02 | 0.02 | 92 | 1009.0 |
| 20260507021505 | 62 | 207 | 0.9 | 1.7 | 0.00 | 0.02 | 0.02 | 92 | 1009.1 |
| 20260507020005 | 63 | 207 | 0.0 | 0.9 | 0.00 | 0.02 | 0.02 | 91 | 1008.8 |
| 20260507015505 | 63 | 207 | 0.0 | 0.9 | 0.00 | 0.02 | 0.02 | 91 | 1008.8 |
| 20260507015005 | 63 | 207 | 0.9 | 0.9 | 0.00 | 0.02 | 0.02 | 91 | 1009.1 |
| 20260507014505 | 63 | 207 | 0.0 | 0.9 | 0.00 | 0.02 | 0.02 | 90 | 1009.1 |
| 20260507014005 | 63 | 207 | 0.0 | 1.7 | 0.00 | 0.02 | 0.02 | 90 | 1008.9 |
| 20260507013505 | 64 | 207 | 0.0 | 1.7 | 0.00 | 0.02 | 0.02 | 90 | 1009.0 |
| 20260507013006 | 64 | 210 | 0.0 | 2.6 | 0.00 | 0.02 | 0.02 | 90 | 1008.9 |
| 20260507012505 | 64 | 210 | 0.0 | 3.5 | 0.00 | 0.02 | 0.02 | 89 | 1009.2 |
| 20260507011505 | 64 | 207 | 2.6 | 3.5 | 0.00 | 0.02 | 0.02 | 90 | 1009.1 |
| 20260507011005 | 64 | 193 | 2.6 | 5.2 | 0.00 | 0.02 | 0.02 | 89 | 1008.9 |
| 20260507010505 | 64 | 180 | 3.5 | 5.2 | 0.00 | 0.02 | 0.02 | 89 | 1008.7 |
| 20260507010006 | 65 | 181 | 4.3 | 5.2 | 0.00 | 0.02 | 0.02 | 88 | 1008.7 |
| 20260507005505 | 65 | 185 | 4.3 | 5.2 | 0.00 | 0.02 | 0.02 | 88 | 1008.8 |
| 20260507005005 | 65 | 205 | 3.5 | 5.2 | 0.00 | 0.02 | 0.02 | 87 | 1008.6 |
| 20260507004504 | 65 | 197 | 3.5 | 6.1 | 0.00 | 0.02 | 0.02 | 88 | 1008.7 |
| 20260507003505 | 66 | 195 | 5.2 | 7.0 | 0.00 | 0.02 | 0.02 | 87 | 1008.7 |
| 20260507003005 | 66 | 192 | 5.2 | 7.0 | 0.00 | 0.02 | 0.02 | 86 | 1008.8 |
| 20260507001505 | 66 | 198 | 6.1 | 8.7 | 0.00 | 0.02 | 0.02 | 85 | 1008.3 |
| 20260507000505 | 67 | 196 | 6.1 | 8.7 | 0.00 | 0.02 | 0.02 | 85 | 1008.3 |
| 20260507000005 | 67 | 201 | 7.0 | 9.6 | 0.00 | 0.02 | 0.02 | 85 | 1008.3 |
| 20260506235505 | 67 | 202 | 7.8 | 9.6 | 0.00 | 0.02 | 0.02 | 84 | 1008.2 |
| 20260506235005 | 67 | 184 | 7.0 | 9.6 | 0.00 | 0.02 | 0.02 | 84 | 1008.3 |
| 20260506234505 | 67 | 192 | 7.0 | 8.7 | 0.00 | 0.02 | 0.02 | 84 | 1008.3 |
| 20260506234005 | 67 | 201 | 7.8 | 8.7 | 0.00 | 0.02 | 0.02 | 84 | 1008.2 |
| 20260506233505 | 67 | 206 | 7.0 | 10.4 | 0.00 | 0.02 | 0.02 | 84 | 1008.2 |
| 20260506233006 | 67 | 202 | 7.0 | 10.4 | 0.00 | 0.02 | 0.02 | 84 | 1008.2 |
| 20260506232505 | 67 | 198 | 7.0 | 10.4 | 0.00 | 0.02 | 0.02 | 84 | 1008.1 |
| 20260506232004 | 67 | 203 | 7.0 | 8.7 | 0.00 | 0.02 | 0.02 | 83 | 1008.1 |
| 20260506231505 | 68 | 192 | 7.0 | 9.6 | 0.00 | 0.02 | 0.02 | 83 | 1008.0 |
| 20260506231004 | 68 | 195 | 7.0 | 9.6 | 0.00 | 0.02 | 0.02 | 83 | 1008.1 |
| 20260506230505 | 68 | 207 | 7.0 | 10.4 | 0.00 | 0.02 | 0.02 | 83 | 1008.1 |
| 20260506230005 | 68 | 205 | 7.8 | 10.4 | 0.00 | 0.02 | 0.02 | 83 | 1007.9 |
| 20260506225505 | 68 | 190 | 7.0 | 10.4 | 0.00 | 0.02 | 0.02 | 82 | 1007.9 |
| 20260506224505 | 68 | 206 | 7.8 | 11.3 | 0.00 | 0.02 | 0.02 | 82 | 1008.1 |
| 20260506224005 | 68 | 199 | 7.8 | 11.3 | 0.00 | 0.02 | 0.02 | 81 | 1008.2 |
| 20260506222505 | 68 | 205 | 10.4 | 16.5 | 0.00 | 0.02 | 0.02 | 81 | 1008.2 |
| 20260506222006 | 68 | 191 | 10.4 | 15.6 | 0.00 | 0.02 | 0.02 | 81 | 1008.1 |
| 20260506221505 | 68 | 206 | 12.2 | 15.6 | 0.00 | 0.02 | 0.02 | 81 | 1008.1 |
| 20260506221005 | 68 | 187 | 10.4 | 18.2 | 0.00 | 0.02 | 0.02 | 81 | 1008.2 |
| 20260506220005 | 68 | 213 | 133.8 | 569.2 | 8.05 | 0.00 | 0.02 | 81 | |
| 20260506215504 | 68 | 200 | 10.4 | 14.8 | 0.00 | 0.02 | 0.02 | 81 | 1008.3 |
| 20260506215006 | 68 | 207 | 11.3 | 15.6 | 0.00 | 0.02 | 0.02 | 81 | 1008.2 |
| 20260506214505 | 68 | 191 | 11.3 | 15.6 | 0.00 | 0.02 | 0.02 | 82 | 1008.2 |
| 20260506213504 | 68 | 188 | 11.3 | 15.6 | 0.00 | 0.02 | 0.02 | 82 | 1008.1 |
| 20260506213005 | 68 | 204 | 12.2 | 17.4 | 0.00 | 0.02 | 0.02 | 82 | 1008.0 |
| 20260506211505 | 68 | 186 | 12.2 | 16.5 | 0.00 | 0.02 | 0.02 | 82 | 1008.0 |
| 20260506211003 | 68 | 209 | 13.0 | 16.5 | 0.00 | 0.02 | 0.02 | 81 | 1008.0 |
| 20260506210505 | 68 | 191 | 11.3 | 14.8 | 0.00 | 0.02 | 0.02 | 82 | 1008.0 |
| 20260506210005 | 68 | 192 | 13.0 | 18.2 | 0.00 | 0.02 | 0.02 | 82 | 1007.9 |
| 20260506205505 | 68 | 187 | 12.2 | 18.2 | 0.00 | 0.02 | 0.02 | 81 | 1007.9 |
| 20260506204004 | 67 | 183 | 12.2 | 14.8 | 0.00 | 0.02 | 0.02 | 82 | 1008.0 |
| 20260506203504 | 67 | 199 | 11.3 | 13.9 | 0.00 | 0.02 | 0.02 | 82 | 1008.0 |
| 20260506203004 | 67 | 180 | 11.3 | 15.6 | 0.00 | 0.02 | 0.02 | 83 | 1008.0 |
| 20260506202504 | 67 | 193 | 12.2 | 19.1 | 0.00 | 0.02 | 0.02 | 82 | 1008.4 |
| 20260506201504 | 67 | 192 | 13.9 | 19.1 | 0.00 | 0.02 | 0.02 | 82 | 1008.2 |
| 20260506201004 | 67 | 194 | 14.8 | 19.1 | 0.00 | 0.02 | 0.02 | 82 | 1008.1 |
| 20260506200504 | 67 | 191 | 13.9 | 20.0 | 0.00 | 0.02 | 0.02 | 82 | 1008.0 |
| 20260506200005 | 67 | 194 | 15.6 | 20.0 | 0.00 | 0.02 | 0.02 | 82 | 1008.1 |
| 20260506195500 | 67 | 190 | 16.5 | 19.1 | 0.00 | 0.02 | 0.02 | 82 | 1008.3 |
| 20260506194503 | 67 | 189 | 14.8 | 20.9 | 0.00 | 0.02 | 0.02 | 82 | 1008.6 |
| 20260506194002 | 67 | 198 | 13.9 | 20.9 | 0.00 | 0.02 | 0.02 | 81 | 1008.6 |
| 20260506193505 | 68 | 180 | 16.5 | 20.0 | 0.00 | 0.02 | 0.02 | 81 | 1008.3 |
| 20260506193004 | 67 | 184 | 14.8 | 20.9 | 0.00 | 0.02 | 0.02 | 81 | 1008.9 |
| 20260506192002 | 67 | 186 | 13.9 | 17.4 | 0.00 | 0.02 | 0.02 | 82 | 1009.0 |
| 20260506191502 | 67 | 190 | 10.4 | 19.1 | 0.00 | 0.02 | 0.02 | 82 | 1009.0 |
| 20260506191004 | 67 | 200 | 13.0 | 19.1 | 0.00 | 0.02 | 0.02 | 81 | 1009.2 |
| 20260506190503 | 67 | 196 | 15.6 | 19.1 | 0.00 | 0.02 | 0.02 | 80 | 1009.1 |
| 20260506190005 | 67 | 194 | 13.9 | 22.6 | 0.00 | 0.02 | 0.02 | 80 | 1008.7 |
| 20260506185505 | 67 | 174 | 15.6 | 25.2 | 0.00 | 0.02 | 0.02 | 80 | 1008.6 |
| 20260506185004 | 67 | 195 | 16.5 | 20.9 | 0.00 | 0.02 | 0.02 | 81 | 1008.9 |
| 20260506184504 | 67 | 184 | 14.8 | 19.1 | 0.00 | 0.02 | 0.02 | 81 | 1009.2 |
| 20260506183500 | 67 | 193 | 13.0 | 16.5 | 0.00 | 0.02 | 0.02 | 80 | 1009.5 |
| 20260506183005 | 67 | 192 | 12.2 | 16.5 | 0.00 | 0.02 | 0.02 | 81 | 1009.6 |
| 20260506182500 | 67 | 196 | 13.0 | 19.1 | 0.00 | 0.02 | 0.02 | 81 | 1009.7 |
| 20260506182004 | 67 | 192 | 13.9 | 20.9 | 0.00 | 0.02 | 0.02 | 81 | 1009.5 |
| 20260506181000 | 67 | 173 | 17.4 | 22.6 | 0.00 | 0.02 | 0.02 | 81 | 1009.6 |
| 20260506180502 | 66 | 180 | 17.4 | 26.1 | 0.00 | 0.02 | 0.02 | 82 | 1009.5 |
| 20260506180006 | 66 | 183 | 16.5 | 21.7 | 0.00 | 0.02 | 0.02 | 82 | 1009.6 |
| 20260506174505 | 66 | 172 | 19.1 | 23.5 | 0.00 | 0.02 | 0.02 | 82 | 1009.8 |
| 20260506174005 | 66 | 173 | 17.4 | 21.7 | 0.00 | 0.02 | 0.02 | 82 | 1009.8 |
| 20260506173504 | 66 | 179 | 17.4 | 21.7 | 0.00 | 0.02 | 0.02 | 83 | 1009.8 |
| 20260506173005 | 66 | 179 | 18.2 | 22.6 | 0.00 | 0.02 | 0.02 | 83 | 1009.9 |
| 20260506172505 | 66 | 180 | 17.4 | 22.6 | 0.00 | 0.02 | 0.02 | 84 | 1009.9 |
| 20260506172004 | 65 | 179 | 17.4 | 23.5 | 0.00 | 0.02 | 0.02 | 85 | 1009.6 |
| 20260506171505 | 65 | 169 | 19.1 | 23.5 | 0.00 | 0.02 | 0.02 | 85 | 1009.8 |
| 20260506170505 | 64 | 175 | 17.4 | 22.6 | 0.01 | 0.02 | 0.02 | 87 | 1009.9 |
| 20260506165500 | 63 | 184 | 16.5 | 21.7 | 0.02 | 0.02 | 0.02 | 86 | 1010.1 |
| 20260506165003 | 63 | 165 | 17.4 | 21.7 | 0.02 | 0.02 | 0.02 | 86 | 1010.0 |
| 20260506164505 | 63 | 172 | 15.6 | 21.7 | 0.02 | 0.02 | 0.02 | 86 | 1009.9 |
| 20260506164004 | 63 | 177 | 18.2 | 20.9 | 0.02 | 0.02 | 0.02 | 86 | 1010.1 |
| 20260506163000 | 64 | 182 | 16.5 | 24.3 | 0.02 | 0.02 | 0.02 | 86 | 1010.2 |
| 20260506162500 | 64 | 180 | 20.9 | 24.3 | 0.02 | 0.02 | 0.02 | 86 | 1010.2 |
| 20260506162002 | 64 | 168 | 19.1 | 24.3 | 0.02 | 0.02 | 0.02 | 85 | 1010.2 |
| 20260506161504 | 64 | 184 | 18.2 | 24.3 | 0.02 | 0.02 | 0.02 | 85 | 1010.3 |
| 20260506161005 | 64 | 183 | 20.0 | 26.1 | 0.01 | 0.01 | 0.01 | 84 | 1010.2 |
| 20260506160504 | 64 | 178 | 20.9 | 26.1 | 0.01 | 0.01 | 0.01 | 83 | 1010.3 |
| 20260506160004 | 64 | 186 | 18.2 | 23.5 | 0.00 | 0.00 | 0.00 | 82 | 1010.5 |
| 20260506155000 | 65 | 188 | 17.4 | 23.5 | 0.00 | 0.00 | 0.00 | 81 | 1010.9 |
| 20260506153500 | 65 | 177 | 13.9 | 17.4 | 0.00 | 0.00 | 0.00 | 83 | 1011.0 |
| 20260506153000 | 64 | 176 | 13.0 | 16.5 | 0.00 | 0.00 | 0.00 | 82 | 1011.0 |
| 20260506152500 | 64 | 167 | 12.2 | 13.9 | 0.00 | 0.00 | 0.00 | 83 | 1011.0 |
| 20260506152000 | 64 | 173 | 13.0 | 13.9 | 0.00 | 0.00 | 0.00 | 84 | 1011.1 |
| 20260506151504 | 64 | 181 | 10.4 | 13.0 | 0.00 | 0.00 | 0.00 | 84 | 1011.1 |
| 20260506151002 | 64 | 184 | 11.3 | 13.9 | 0.00 | 0.00 | 0.00 | 83 | 1011.1 |
| 20260506150500 | 64 | 183 | 11.3 | 13.9 | 0.00 | 0.00 | 0.00 | 82 | 1011.3 |
| 20260506145504 | 64 | 188 | 10.4 | 14.8 | 0.00 | 0.00 | 0.00 | 83 | 1011.1 |
| 20260506145003 | 65 | 188 | 10.4 | 15.6 | 0.00 | 0.00 | 0.00 | 82 | 1011.3 |
| 20260506144500 | 65 | 190 | 12.2 | 16.5 | 0.00 | 0.00 | 0.00 | 80 | 1011.3 |
| 20260506144000 | 65 | 195 | 12.2 | 16.5 | 0.00 | 0.00 | 0.00 | 78 | 1011.2 |
| 20260506143000 | 66 | 181 | 13.9 | 17.4 | 0.00 | 0.00 | 0.00 | 77 | 1011.0 |
| 20260506142500 | 66 | 177 | 12.2 | 16.5 | 0.00 | 0.00 | 0.00 | 75 | 1011.0 |
| 20260506141505 | 66 | 177 | 13.9 | 18.2 | 0.00 | 0.00 | 0.00 | 74 | 1011.0 |
| 20260506141000 | 66 | 182 | 14.8 | 19.1 | 0.00 | 0.00 | 0.00 | 74 | 1011.1 |
| 20260506140500 | 66 | 184 | 16.5 | 19.1 | 0.00 | 0.00 | 0.00 | 74 | 1011.1 |
| 20260506140005 | 66 | 185 | 15.6 | 18.2 | 0.00 | 0.00 | 0.00 | 74 | 1011.2 |
| 20260506135500 | 66 | 175 | 14.8 | 20.9 | 0.00 | 0.00 | 0.00 | 73 | 1011.1 |
| 20260506135005 | 66 | 184 | 15.6 | 20.9 | 0.00 | 0.00 | 0.00 | 73 | 1011.1 |
| 20260506134502 | 67 | 176 | 16.5 | 22.6 | 0.00 | 0.00 | 0.00 | 73 | 1011.1 |
| 20260506134004 | 67 | 171 | 15.6 | 21.7 | 0.00 | 0.00 | 0.00 | 72 | 1011.0 |
| 20260506133500 | 67 | 170 | 16.5 | 23.5 | 0.00 | 0.00 | 0.00 | 72 | 1011.1 |
| 20260506132959 | 67 | 195 | 20.9 | 23.5 | 0.00 | 0.00 | 0.00 | 72 | 1011.2 |
| 20260506132005 | 67 | 167 | 17.4 | 22.6 | 0.00 | 0.00 | 0.00 | 71 | 1011.0 |
| 20260506131500 | 67 | 176 | 18.2 | 20.9 | 0.00 | 0.00 | 0.00 | 72 | 1011.0 |
| 20260506131005 | 67 | 177 | 17.4 | 25.2 | 0.00 | 0.00 | 0.00 | 72 | 1011.1 |
| 20260506130500 | 67 | 177 | 19.1 | 25.2 | 0.00 | 0.00 | 0.00 | 72 | 1011.1 |
| 20260506130006 | 66 | 171 | 16.5 | 26.1 | 0.00 | 0.00 | 0.00 | 73 | 1011.0 |
| 20260506125500 | 66 | 178 | 19.1 | 26.1 | 0.00 | 0.00 | 0.00 | 72 | 1010.9 |
| 20260506124504 | 66 | 174 | 16.5 | 20.0 | 0.00 | 0.00 | 0.00 | 72 | 1010.9 |
| 20260506124000 | 67 | 182 | 16.5 | 21.7 | 0.00 | 0.00 | 0.00 | 72 | 1010.9 |
| 20260506123500 | 67 | 171 | 18.2 | 22.6 | 0.00 | 0.00 | 0.00 | 72 | 1011.1 |
| 20260506122500 | 66 | 174 | 13.9 | 20.0 | 0.00 | 0.00 | 0.00 | 72 | 1011.3 |
| 20260506122000 | 66 | 178 | 15.6 | 24.3 | 0.00 | 0.00 | 0.00 | 72 | 1011.4 |
| 20260506121500 | 66 | 175 | 20.9 | 24.3 | 0.00 | 0.00 | 0.00 | 72 | 1011.5 |
| 20260506120959 | 66 | 167 | 16.5 | 23.5 | 0.00 | 0.00 | 0.00 | 72 | 1011.4 |
| 20260506120459 | 66 | 170 | 20.0 | 26.1 | 0.00 | 0.00 | 0.00 | 71 | 1011.6 |
| 20260506120005 | 66 | 186 | 17.4 | 21.7 | 0.00 | 0.00 | 0.00 | 72 | 1011.7 |
| 20260506115500 | 66 | 192 | 19.1 | 23.5 | 0.00 | 0.00 | 0.00 | 72 | 1011.4 |
| 20260506114459 | 66 | 182 | 16.5 | 21.7 | 0.00 | 0.00 | 0.00 | 73 | 1011.2 |
| 20260506113500 | 66 | 176 | 19.1 | 23.5 | 0.00 | 0.00 | 0.00 | 72 | 1011.1 |
| 20260506112959 | 65 | 181 | 16.5 | 22.6 | 0.00 | 0.00 | 0.00 | 74 | 1011.1 |
| 20260506112500 | 65 | 171 | 20.0 | 23.5 | 0.00 | 0.00 | 0.00 | 74 | 1011.0 |
| 20260506111959 | 64 | 162 | 18.2 | 24.3 | 0.00 | 0.00 | 0.00 | 74 | 1011.0 |
| 20260506111500 | 64 | 175 | 20.0 | 23.5 | 0.00 | 0.00 | 0.00 | 74 | 1011.0 |
| 20260506111000 | 64 | 181 | 18.2 | 24.3 | 0.00 | 0.00 | 0.00 | 74 | 1011.0 |
| 20260506110504 | 64 | 179 | 19.1 | 25.2 | 0.00 | 0.00 | 0.00 | 74 | 1010.8 |
| 20260506105500 | 64 | 181 | 19.1 | 24.3 | 0.00 | 0.00 | 0.00 | 74 | 1010.7 |
| 20260506105000 | 64 | 183 | 19.1 | 23.5 | 0.00 | 0.00 | 0.00 | 75 | 1010.8 |
| 20260506104500 | 64 | 173 | 18.2 | 24.3 | 0.00 | 0.00 | 0.00 | 75 | 1010.9 |
| 20260506104002 | 64 | 180 | 18.2 | 24.3 | 0.00 | 0.00 | 0.00 | 75 | 1010.7 |
| 20260506103500 | 64 | 178 | 19.1 | 25.2 | 0.00 | 0.00 | 0.00 | 75 | 1010.6 |
| 20260506103000 | 64 | 174 | 20.9 | 23.5 | 0.00 | 0.00 | 0.00 | 75 | 1010.6 |
| 20260506102459 | 64 | 173 | 20.0 | 23.5 | 0.00 | 0.00 | 0.00 | 75 | 1010.5 |
| 20260506102000 | 64 | 183 | 19.1 | 23.5 | 0.00 | 0.00 | 0.00 | 75 | 1010.6 |
| 20260506100006 | 64 | 180 | 18.2 | 24.3 | 0.00 | 0.00 | 0.00 | 76 | 1010.9 |
| 20260506095505 | 64 | 186 | 19.1 | 26.1 | 0.00 | 0.00 | 0.00 | 77 | 1010.9 |
| 20260506095000 | 64 | 185 | 17.4 | 21.7 | 0.00 | 0.00 | 0.00 | 77 | 1010.9 |
| 20260506094500 | 64 | 190 | 17.4 | 21.7 | 0.00 | 0.00 | 0.00 | 78 | 1011.0 |
| 20260506094000 | 64 | 183 | 17.4 | 21.7 | 0.00 | 0.00 | 0.00 | 77 | 1010.8 |
| 20260506093500 | 64 | 182 | 16.5 | 24.3 | 0.00 | 0.00 | 0.00 | 77 | 1010.8 |
| 20260506093006 | 64 | 186 | 18.2 | 24.3 | 0.00 | 0.00 | 0.00 | 77 | 1010.8 |
| 20260506092500 | 64 | 182 | 18.2 | 24.3 | 0.00 | 0.00 | 0.00 | 77 | 1010.7 |
| 20260506092004 | 64 | 191 | 17.4 | 25.2 | 0.00 | 0.00 | 0.00 | 77 | 1010.7 |
| 20260506091505 | 64 | 182 | 17.4 | 26.1 | 0.00 | 0.00 | 0.00 | 77 | 1010.7 |
| 20260506091005 | 64 | 173 | 20.0 | 26.1 | 0.00 | 0.00 | 0.00 | 77 | 1010.7 |
| 20260506090504 | 64 | 175 | 20.9 | 24.3 | 0.00 | 0.00 | 0.00 | 77 | 1010.6 |
| 20260506090005 | 64 | 184 | 20.9 | 25.2 | 0.00 | 0.00 | 0.00 | 77 | 1010.7 |
| 20260506085504 | 64 | 174 | 20.0 | 25.2 | 0.00 | 0.00 | 0.00 | 77 | 1010.7 |
| 20260506085000 | 64 | 180 | 20.0 | 26.9 | 0.00 | 0.00 | 0.00 | 77 | 1010.7 |
| 20260506084505 | 64 | 179 | 20.0 | 26.1 | 0.00 | 0.00 | 0.00 | 77 | 1010.9 |
| 20260506084003 | 64 | 183 | 19.1 | 24.3 | 0.00 | 0.00 | 0.00 | 77 | 1010.9 |
| 20260506083501 | 64 | 183 | 20.9 | 24.3 | 0.00 | 0.00 | 0.00 | 77 | 1010.7 |
| 20260506082959 | 64 | 173 | 20.0 | 23.5 | 0.00 | 0.00 | 0.00 | 77 | 1010.7 |
| 20260506082504 | 65 | 171 | 20.9 | 25.2 | 0.00 | 0.00 | 0.00 | 77 | 1010.8 |
| 20260506082003 | 65 | 174 | 21.7 | 23.5 | 0.00 | 0.00 | 0.00 | 77 | 1010.7 |
| 20260506081000 | 65 | 173 | 20.0 | 26.1 | 0.00 | 0.00 | 0.00 | 77 | 1010.7 |
| 20260506080503 | 65 | 180 | 20.9 | 25.2 | 0.00 | 0.00 | 0.00 | 77 | 1010.9 |
| 20260506072958 | 65 | 178 | 18.2 | 22.6 | 0.00 | 0.00 | 0.00 | 77 | 1011.2 |
| 20260506072459 | 65 | 171 | 19.1 | 21.7 | 0.00 | 0.00 | 0.00 | 77 | 1011.2 |
| 20260506071959 | 65 | 174 | 19.1 | 26.9 | 0.00 | 0.00 | 0.00 | 77 | 1011.3 |
| 20260506070958 | 65 | 168 | 17.4 | 23.5 | 0.00 | 0.00 | 0.00 | 76 | 1011.2 |
| 20260506070459 | 65 | 169 | 20.0 | 25.2 | 0.00 | 0.00 | 0.00 | 76 | 1011.2 |
| 20260506062459 | 66 | 180 | 18.2 | 24.3 | 0.00 | 0.00 | 0.00 | 75 | 1011.4 |
| 20260506061959 | 66 | 184 | 19.1 | 24.3 | 0.00 | 0.00 | 0.00 | 76 | 1011.3 |
| 20260506061459 | 66 | 172 | 20.0 | 22.6 | 0.00 | 0.00 | 0.00 | 75 | 1011.3 |
| 20260506060958 | 66 | 176 | 19.1 | 24.3 | 0.00 | 0.00 | 0.00 | 75 | 1011.2 |